Flag for Guernsey Weather past 2 weeks in St. Peter Port, Guernsey

Now
50 °F

Passing clouds.


Feels Like: 46 °F
Forecast: 46 / 53 °F
Wind: 10 mph from Southwest

Location: Guernsey Airport

Current Time: Apr 25, 2015 at 5:21:59 AM

Latest Report: Apr 25, 2015 at 3:50 AM


Visibility: 5 mi

Pressure: 29.74 "Hg

Humidity: 100%

Dew point: 50 °F

Location of St. Peter PortLocation

Historic Weather in St. Peter Port — Graph

°F

St. Peter Port temperature yesterday

Maximum temperature yesterday: 57 °F (at 1:20 PM)
Minimum temperature yesterday: 46 °F (at 3:50 AM)
Average temperature yesterday: 53 °F

Past Weeks' High & Low Weather Summary

 TemperatureHumidityPressure
High72 °F (Apr 15, 11:50 AM)100% (Apr 11, 6:20 AM)30.51 "Hg (Apr 11, 6:20 AM)
Low43 °F (Apr 12, 5:20 AM)47% (Apr 15, 1:20 PM)29.74 "Hg (Apr 25, 3:50 AM)
Average53 °F82%30.17 "Hg
* Reported Apr 10 3:50 AM — Apr 25 3:50 AM, St. Peter Port, Weather by CustomWeather, © 2015

Note: Actual official high and low records may vary slightly from our data, if they occured in-between our weather recording intervals... More about our weather records

Advertising

St. Peter Port weather history for previous 24 hours

 ConditionsComfort  
Time TempWeatherWind HumidityBarometerVisibility
3:50 AM
Sat, Apr 25
50 °FPassing clouds.10 mph100%29.74 "Hg5 mi
8:50 PM
Fri, Apr 24
50 °FLight rain. Fog.8 mph100%29.86 "Hg3 mi
8:20 PM50 °FLight rain. Fog.8 mph100%29.86 "Hg2 mi
7:50 PM50 °FLight rain. Fog.8 mph100%29.86 "Hg3 mi
7:20 PM52 °FLight rain. Partly sunny.8 mph94%29.86 "Hg4 mi
6:50 PM52 °FLight rain. Partly sunny.7 mph94%29.86 "Hg4 mi
6:20 PM52 °FLight rain. Partly sunny.6 mph94%29.86 "HgN/A
5:50 PM54 °FLight rain. Broken clouds.6 mph88%29.89 "HgN/A
5:20 PM54 °FPartly sunny.6 mph88%29.89 "HgN/A
4:50 PM55 °FScattered clouds.7 mph77%29.89 "HgN/A
4:20 PM55 °FPassing clouds.9 mph77%29.89 "HgN/A
3:50 PM57 °FPassing clouds.9 mph77%29.89 "HgN/A
3:20 PM57 °FPassing clouds.8 mph77%29.92 "HgN/A
2:50 PM57 °FPassing clouds.8 mph77%29.92 "HgN/A
2:20 PM57 °FPassing clouds.9 mph77%29.92 "HgN/A
1:50 PM57 °FPassing clouds.10 mph77%29.95 "HgN/A
1:20 PM57 °FPassing clouds.10 mph77%29.95 "HgN/A
12:50 PM55 °FPassing clouds.12 mph82%29.95 "HgN/A
12:20 PM54 °FPassing clouds.9 mph88%29.95 "HgN/A
11:50 AM54 °FPassing clouds.12 mph88%29.95 "HgN/A
11:20 AM54 °FPassing clouds.12 mph88%29.95 "Hg6 mi
10:50 AM54 °FScattered clouds.9 mph88%29.95 "Hg4 mi
10:20 AM54 °FPassing clouds.10 mph88%29.95 "Hg5 mi
9:50 AM54 °FScattered clouds.13 mph94%29.95 "Hg4 mi
9:20 AM52 °FFog.12 mph100%29.98 "Hg2 mi
8:50 AM52 °FFog.13 mph100%29.98 "Hg1 mi
8:20 AM52 °FFog.13 mph94%29.98 "Hg2 mi
7:50 AM52 °FPartly sunny.10 mph94%29.98 "Hg4 mi
7:20 AM50 °FFog.9 mph100%29.98 "Hg2 mi
6:50 AM50 °FFog.8 mph100%29.95 "Hg2 mi
6:20 AM50 °FFog.8 mph100%29.95 "Hg3 mi
5:50 AM50 °FFog.8 mph100%29.95 "Hg2 mi
5:20 AM50 °FFog.7 mph94%29.95 "Hg2 mi
Weather by CustomWeather, © 2015

See weather overviewHow to use our weather pages